This is the latest recevied weather packets stored in our database for station/object N8BAP. If no packets are shown the sender has not sent any weather packets the latest 1 day(s).
| Time | Temp. | Humidity | Pressure | Rain* | Wind** | Luminosity | Snow |
|---|---|---|---|---|---|---|---|
| 1778085767 | 13.89° C | 59% | 1018 hPa | 0 mm | - | 778 W/m² | - |
| 1778085158 | 13.89° C | 66% | 1017.8 hPa | 0 mm | - | 542 W/m² | - |
| 1778084855 | 13.89° C | 64% | 1017.7 hPa | 0 mm | - | 638 W/m² | - |
| 1778084553 | 13.33° C | 67% | 1017.6 hPa | 0 mm | - | 580 W/m² | - |
| 1778083644 | 12.78° C | 67% | 1017.9 hPa | 0 mm | - | 546 W/m² | - |
| 1778083340 | 12.78° C | 68% | 1018 hPa | 0 mm | - | 558 W/m² | - |
| 1778083039 | 12.78° C | 67% | 1018 hPa | 0 mm | - | 465 W/m² | - |
| 1778080083 | 12.22° C | 73% | 1016.9 hPa | 0 mm | - | 363 W/m² | - |
| 1778078568 | 11.67° C | 74% | 1016.8 hPa | 0 mm | - | 625 W/m² | - |
| 1778078266 | 11.67° C | 74% | 1016.7 hPa | 0 mm | - | 370 W/m² | - |
| 1778077963 | 11.11° C | 80% | 1016.7 hPa | 0 mm | - | 459 W/m² | - |
| 1778077359 | 11.11° C | 78% | 1016.7 hPa | 0 mm | - | 378 W/m² | - |
| 1778077057 | 10.56° C | 80% | 1016.7 hPa | 0 mm | - | 358 W/m² | - |
| 1778076149 | 11.11° C | 77% | 1016.5 hPa | 0 mm | - | 469 W/m² | - |
| 1778075542 | 11.11° C | 79% | 1016.5 hPa | 0 mm | - | 388 W/m² | - |
| 1778075239 | 10.56° C | 83% | 1016.2 hPa | 0 mm | - | 540 W/m² | - |
| 1778074935 | 10.56° C | 79% | 1016.4 hPa | 0 mm | - | 554 W/m² | - |
| 1778074329 | 10° C | 81% | 1016.1 hPa | 0 mm | - | 609 W/m² | - |
| 1778073421 | 9.44° C | 87% | 1015.9 hPa | 0 mm | - | 429 W/m² | - |
| 1778071302 | 7.78° C | 92% | 1015.8 hPa | 0 mm | - | 115 W/m² | - |
| 1778070698 | 7.78° C | 93% | 1015.6 hPa | 0 mm | - | 88 W/m² | - |
| 1778069184 | 7.78° C | 95% | 1015.2 hPa | 0 mm | - | 53 W/m² | - |
| 1778068881 | 7.78° C | 95% | 1015 hPa | 0 mm | - | 55 W/m² | - |
| 1778068277 | 7.78° C | 95% | 1014.5 hPa | 0 mm | - | 46 W/m² | - |
| 1778067370 | 7.78° C | 96% | 1014.8 hPa | 0 mm | - | 12 W/m² | - |
* Rain latest hour (hover to see other rain measurements)
** Current wind speed in m/s (hover to see current wind gust speed)